Skagway, AK

2:35 AM AKST on February 27, 2017 (GMT -0900)
Skagway

Weather History for PAGY - October, 2013

Change the Weather History Date:

Sunday, October 13, 2013

  Actual Average Record
Temperature  
Mean Temperature 48 °F -  
Max Temperature 51 °F 46 °F 59 °F (2014)
Min Temperature 46 °F 37 °F 30 °F (1969)
Degree Days  
Heating Degree Days 17    
Moisture  
Dew Point 41 °F    
Average Humidity 74    
Maximum Humidity 83    
Minimum Humidity 63    
Precipitation  
Precipitation 0.18 in - - ()
Sea Level Pressure  
Sea Level Pressure 30.08 in    
Wind  
Wind Speed 11 mph (SSW)    
Max Wind Speed 22 mph    
Max Gust Speed 29 mph    
Visibility 10 miles    
Events Rain    
Averages and records for this station are not official NWS values.
T = Trace of Precipitation, MM = Missing Value Source: NWS Daily Summary

Daily Weather History Graph

Daily Weather History Graph

Search for Another Location

Airport or City:

Trip Planner

Search our weather history database for the weather conditions in past years. The results will help you decide how hot, cold, wet, or windy it might be!

Date:

Astronomy

Oct. 13, 2013 Rise Set
Actual Time 7:35 AM AKDT 5:57 PM AKDT
Civil Twilight 6:54 AM AKDT 6:39 PM AKDT
Nautical Twilight 6:06 AM AKDT 7:26 PM AKDT
Astronomical Twilight 5:18 AM AKDT 8:14 PM AKDT
Moon 3:59 PM AKDT (10/13) 12:38 AM AKDT (10/13)
Length of Visible Light 11h 44m
Length of Day
10h 22m
Waxing Gibbous, 71% of the Moon is Illuminated
Oct 13
Waxing Gibbous
Oct 18
Full
Oct 26
Last Quarter
Nov 3
New
Nov 9
First Quarter

Hourly Weather History & Observations

Time (AKDT) Temp. Dew Point Humidity Pressure Visibility Wind Dir Wind Speed Gust Speed Precip Events Conditions
12:53 AM 48.9 °F 37.9 °F 66% 30.17 in 10.0 mi South 10.4 mph - N/A   Overcast
1:53 AM 48.9 °F 37.0 °F 64% 30.17 in 10.0 mi SSW 9.2 mph - N/A   Overcast
2:53 AM 48.9 °F 37.9 °F 66% 30.17 in 10.0 mi South 6.9 mph - N/A   Overcast
3:53 AM 48.9 °F 37.9 °F 66% 30.17 in 10.0 mi SSW 6.9 mph - N/A   Overcast
4:53 AM 48.9 °F 37.9 °F 66% 30.15 in 10.0 mi SSW 11.5 mph 19.6 mph N/A   Overcast
5:53 AM 50.0 °F 37.9 °F 63% 30.15 in 10.0 mi South 9.2 mph - N/A   Overcast
6:53 AM 46.9 °F 37.9 °F 71% 30.13 in 10.0 mi ENE 5.8 mph - N/A   Overcast
7:53 AM 46.9 °F 39.9 °F 77% 30.14 in 10.0 mi Variable 4.6 mph - N/A   Overcast
8:53 AM 48.9 °F 39.9 °F 71% 30.12 in 10.0 mi SSW 18.4 mph - N/A   Overcast
9:53 AM 48.9 °F 39.9 °F 71% 30.12 in 10.0 mi SSW 16.1 mph - N/A   Overcast
10:53 AM 50.0 °F 39.0 °F 66% 30.11 in 10.0 mi SSW 9.2 mph 18.4 mph N/A   Overcast
11:53 AM 48.9 °F 39.9 °F 71% 30.11 in 10.0 mi SSW 12.7 mph 19.6 mph N/A   Overcast
12:53 PM 48.9 °F 39.9 °F 71% 30.10 in 10.0 mi SSW 13.8 mph 19.6 mph N/A   Overcast
1:53 PM 46.9 °F 41.0 °F 80% 30.07 in 10.0 mi SSW 13.8 mph - N/A   Overcast
2:53 PM 48.0 °F 41.0 °F 77% 30.08 in 9.0 mi SW 11.5 mph - 0.00 in Rain Light Rain
3:09 PM 48.2 °F 42.8 °F 82% 30.06 in 10.0 mi Variable 5.8 mph - 0.00 in Rain Light Rain
3:28 PM 48.2 °F 42.8 °F 82% 30.07 in 10.0 mi Calm Calm - 0.01 in Rain Light Rain
3:53 PM 48.0 °F 43.0 °F 83% 30.06 in 8.0 mi Variable 6.9 mph - 0.02 in Rain Light Rain
4:53 PM 48.0 °F 43.0 °F 83% 30.04 in 10.0 mi SW 5.8 mph - 0.00 in   Overcast
5:53 PM 48.9 °F 42.1 °F 77% 30.03 in 10.0 mi SSW 13.8 mph 23.0 mph 0.01 in Rain Light Rain
6:53 PM 48.9 °F 43.0 °F 80% 30.00 in 10.0 mi SSW 21.9 mph 28.8 mph 0.00 in   Overcast
7:53 PM 48.9 °F 43.0 °F 80% 29.99 in 10.0 mi SSW 17.3 mph 26.5 mph 0.01 in Rain Light Rain
8:53 PM 50.0 °F 44.1 °F 80% 30.00 in 8.0 mi SSW 19.6 mph 28.8 mph 0.03 in Rain Light Rain
9:53 PM 50.0 °F 44.1 °F 80% 30.00 in 9.0 mi SSW 20.7 mph 28.8 mph 0.05 in Rain Light Rain
10:53 PM 50.0 °F 44.1 °F 80% 30.01 in 10.0 mi SSW 20.7 mph 26.5 mph 0.03 in Rain Light Rain
11:53 PM 51.1 °F 45.0 °F 80% 29.99 in 10.0 mi SSW 16.1 mph 25.3 mph 0.03 in Rain Light Rain